Theta_e
299 300 301 301 302 304 304 305 305 305 305 305 305 305 305 306 307 307 304 304 302 297 296 299 299 297 296 296 294 295 295 295 292 289 288 288 288 291 290 292 291 289 287 286 288 284 282 299 298 293 298 301 301 302
299 300 301 302 302 303 304 304 304 305 305 305 305 305 305 306 306 307 302 303 304 299 298 301 302 303 302 300 296 294 294 294 293 291 290 291 289 289 289 287 294 290 294 291 292 292 298 302 301 303 304 301 302 302
298 299 301 302 303 303 303 304 305 305 305 305 305 305 305 306 306 306 305 303 302 297 298 300 299 303 304 302 303 297 296 297 295 295 293 291 288 291 288 289 290 294 296 295 293 295 297 300 302 304 303 302 304 304
299 299 300 301 302 303 303 304 304 305 305 305 305 306 306 306 306 306 303 303 301 297 292 296 303 301 305 305 303 302 299 297 296 295 293 292 289 291 290 290 291 293 296 294 293 295 296 297 299 301 302 303 301 300
300 299 299 300 302 302 303 303 304 304 305 305 305 305 305 305 305 306 306 304 304 298 291 293 298 303 304 303 300 301 300 297 295 293 292 290 291 291 291 291 289 293 292 290 290 294 295 297 300 302 301 299 299 298
299 300 299 299 301 302 302 303 304 304 305 305 305 305 305 305 305 303 296 303 305 302 294 290 298 300 300 300 300 299 299 297 296 293 291 292 292 293 288 287 291 294 294 296 296 299 299 300 300 301 299 298 298 298
299 299 299 300 300 302 303 304 304 304 305 305 305 304 304 305 303 299 296 301 304 303 295 290 292 298 300 298 298 298 298 296 296 293 291 291 291 294 291 287 291 294 296 297 299 301 297 298 297 300 299 299 298 298
299 299 299 300 301 302 302 303 304 304 304 305 304 304 304 305 305 300 303 304 302 298 296 290 290 294 300 294 293 298 296 296 295 293 292 291 292 293 288 292 294 295 297 299 300 302 299 300 299 298 298 297 295 293
299 300 301 301 301 301 302 302 303 304 305 304 304 304 303 301 299 300 305 303 302 299 292 291 289 288 299 295 297 297 298 290 295 291 292 292 289 286 291 292 294 296 297 297 298 299 298 296 296 296 296 293 291 291
300 301 301 301 302 302 302 303 304 303 304 304 302 298 294 299 307 304 298 296 294 294 296 290 293 291 296 294 292 292 293 289 287 290 293 290 289 294 296 297 298 298 299 299 297 294 294 294 294 294 292 292 291 292
299 300 301 301 302 302 303 303 303 303 303 299 295 293 299 304 299 296 289 289 289 287 291 291 292 291 297 291 290 294 289 290 285 289 288 287 288 293 297 297 298 300 298 298 298 297 297 296 294 292 291 291 292 292
300 300 301 301 302 302 303 303 303 300 297 297 298 300 299 295 292 287 285 287 285 285 290 290 291 292 293 296 292 292 288 289 283 292 288 285 292 295 294 295 296 297 298 297 298 297 296 295 293 292 291 291 291 292
300 301 301 302 302 303 303 302 302 302 302 300 294 290 290 289 283 282 281 284 285 290 292 291 290 292 294 295 292 291 286 286 293 287 285 289 294 293 294 296 296 298 297 297 297 297 295 294 294 292 291 291 291 290
300 301 301 302 303 303 303 303 303 302 297 290 287 283 284 283 284 287 288 290 293 293 293 293 291 290 293 290 290 286 289 290 284 282 285 293 294 294 295 296 296 296 296 296 296 296 294 293 293 292 291 291 290 289
301 301 301 301 303 303 302 302 302 301 295 288 288 282 285 290 291 292 294 294 296 297 294 293 293 294 291 289 290 288 285 284 285 287 291 296 298 296 295 295 295 296 296 296 296 295 294 293 292 291 291 291 290 289
300 300 299 300 302 302 302 302 301 299 295 290 288 286 289 286 288 291 294 293 298 296 296 295 290 289 287 288 286 285 285 283 288 293 296 297 297 296 295 296 296 296 296 297 296 295 294 293 292 291 291 290 289 289
299 297 300 300 301 302 302 298 297 292 289 288 288 290 288 289 289 291 294 295 297 295 291 290 285 285 289 285 284 289 287 291 295 297 297 296 295 295 296 296 296 296 296 297 296 295 293 293 293 291 289 289 289 288
296 299 300 300 300 300 298 297 292 290 286 289 288 290 292 293 292 293 295 298 297 294 292 289 291 287 285 284 287 293 296 299 299 299 296 296 296 296 296 297 297 297 296 296 296 295 294 293 291 290 290 289 289 288
298 299 300 300 300 297 292 292 293 285 287 290 292 293 293 293 295 296 297 299 299 298 293 293 289 288 290 293 294 297 297 298 297 296 297 296 296 296 296 296 296 296 296 295 295 294 294 293 292 291 290 289 287 287
300 300 300 301 301 294 289 290 294 289 286 290 292 291 292 292 294 297 298 299 297 295 293 291 291 293 294 297 299 300 300 299 296 293 293 293 295 296 296 295 296 295 294 294 294 292 293 292 293 292 290 288 288 286
298 299 301 301 297 296 292 291 290 291 291 290 292 291 292 294 295 296 297 299 295 293 293 294 295 296 297 300 302 303 301 300 297 294 294 293 295 296 295 295 296 294 293 293 293 293 292 294 293 292 291 289 289 288
295 299 297 298 293 293 290 294 291 293 290 291 292 293 291 291 291 293 296 294 293 295 296 296 297 298 298 298 300 301 302 301 299 295 293 293 294 294 294 295 293 292 293 293 294 294 294 294 294 293 291 289 289 288
297 297 295 294 289 287 287 295 289 290 286 288 291 289 290 290 293 296 292 294 294 297 297 299 298 299 299 300 302 302 302 302 301 299 296 296 296 296 295 295 295 294 293 294 294 294 294 289 291 292 292 290 290 289
298 293 289 288 288 285 290 288 291 289 289 287 286 285 288 291 293 291 289 291 295 298 299 299 300 299 299 299 299 301 301 299 301 300 296 294 293 292 293 293 293 294 294 294 294 294 294 294 291 292 292 291 290 289
287 286 287 284 289 285 285 286 287 286 284 286 285 285 289 293 288 287 287 292 295 296 297 299 298 297 298 299 300 299 298 297 298 296 294 294 292 291 290 290 290 291 294 294 294 294 294 294 294 294 293 292 290 289
283 286 285 286 287 285 285 286 286 286 287 286 286 290 291 289 286 285 289 291 292 293 293 293 295 297 298 300 297 296 295 296 297 293 292 294 294 293 291 290 289 289 292 293 294 293 293 293 293 292 291 290 286 290
283 284 289 292 290 290 289 290 291 288 286 286 286 286 287 284 284 288 292 292 291 293 294 295 297 297 298 294 292 294 295 296 295 293 293 293 293 293 293 290 289 289 292 293 293 293 292 291 291 290 289 289 289 290
288 288 285 289 289 290 288 288 288 286 287 290 289 286 285 285 285 287 289 292 293 294 294 296 295 294 293 293 294 293 292 292 292 292 291 290 291 291 291 290 289 284 290 291 292 292 291 290 289 288 287 287 286 287
286 289 290 287 289 290 289 288 288 289 291 290 287 286 286 288 288 288 291 292 293 294 294 292 292 293 293 293 294 293 293 293 291 289 287 286 287 288 290 290 289 289 289 287 282 286 288 288 287 286 285 285 285 285
287 290 288 288 288 288 289 291 290 291 291 289 289 288 288 289 291 293 291 291 292 292 294 293 293 293 292 291 291 291 293 295 295 293 290 289 289 289 289 289 289 289 289 288 287 285 283 285 284 285 283 283 283 282
290 289 288 289 288 289 291 291 292 291 290 289 289 288 288 288 291 292 290 290 293 294 294 293 292 294 293 293 293 292 290 291 293 293 292 290 289 289 288 288 288 288 287 287 286 285 284 283 282 281 281 280 280 280
290 289 288 285 286 290 291 289 288 288 288 287 287 288 288 287 287 288 289 289 291 291 289 294 293 289 289 289 289 289 288 290 290 290 290 289 288 287 287 286 286 285 284 283 283 282 282 281 281 280 280 279 279 279
290 289 289 288 287 286 289 288 287 285 286 286 286 288 287 287 286 289 291 287 290 290 289 287 287 287 287 286 286 286 286 287 285 283 283 283 283 284 285 284 284 283 282 282 281 281 280 280 279 279 279 279 278 278
Wind_Speed
20 20 21 21 21 21 19 20 20 18 16 16 15 14 12 13 12 6 3 1 3 2 5 3 4 2 1 1 3 4 4 2 2 3 2 3 2 2 2 5 5 7 8 5 6 5 6 4 5 4 5 3 6 7
19 18 19 20 19 19 19 19 20 18 14 15 14 14 12 11 11 10 2 1 1 3 4 3 4 4 3 2 4 3 3 3 2 4 2 3 3 3 3 4 1 5 2 4 6 1 2 1 2 6 5 10 12 9
20 20 19 21 21 18 20 20 21 21 17 15 14 13 13 10 9 9 1 2 1 2 2 2 3 5 3 4 1 3 1 4 4 2 3 2 3 1 4 3 3 3 3 3 3 3 3 6 7 8 8 9 8 7
21 21 21 21 21 19 19 20 20 19 17 15 12 13 13 8 9 9 1 1 0 1 2 3 3 5 6 5 6 4 8 6 5 1 2 2 2 2 1 2 3 2 4 5 4 5 7 3 4 7 7 5 6 2
22 20 20 22 21 20 20 20 21 19 17 14 12 13 10 11 10 4 1 1 0 3 1 2 1 6 6 9 13 10 9 5 2 3 2 2 2 3 2 1 4 4 4 4 1 2 3 7 7 8 7 4 6 7
21 21 19 20 21 21 20 20 19 17 16 14 12 11 9 10 9 1 0 1 1 1 1 2 1 2 4 10 12 11 6 4 3 3 3 2 2 0 3 3 0 5 3 2 1 3 5 5 3 5 4 6 7 8
20 20 19 20 21 21 20 21 20 16 18 15 12 9 8 8 2 1 2 1 0 1 1 3 3 2 2 2 3 3 4 3 3 2 2 2 2 2 1 2 4 3 3 4 6 3 1 2 3 5 6 7 8 10
19 18 18 19 20 20 19 21 20 15 16 13 8 9 9 7 2 2 1 1 2 2 1 2 2 3 2 1 2 2 2 2 3 2 2 2 3 1 3 4 4 4 5 2 3 4 2 3 3 7 7 9 11 12
20 21 18 18 19 18 18 20 21 15 14 11 10 10 1 0 1 0 1 2 2 1 1 0 4 3 3 2 1 2 0 2 1 1 2 3 3 4 2 3 1 1 2 4 7 5 4 5 6 7 8 11 12 13
20 21 19 18 19 17 16 18 19 12 11 12 2 2 0 1 5 1 2 1 2 2 2 2 0 3 2 3 1 3 2 2 2 2 3 1 2 5 8 9 7 5 0 8 2 3 2 4 6 7 8 9 10 11
21 21 21 20 20 18 18 17 11 9 6 2 2 2 2 5 0 1 1 0 0 2 2 2 3 2 1 2 3 1 2 2 1 3 2 2 2 2 5 4 6 8 9 11 10 7 6 6 5 6 9 11 10 11
20 21 20 20 21 19 19 6 5 2 0 2 4 3 2 2 1 0 2 1 2 2 3 3 3 2 1 1 3 2 2 2 2 5 2 2 1 1 5 6 9 10 11 10 7 8 7 7 5 6 8 10 10 11
21 20 19 20 21 17 8 5 6 5 4 1 2 1 1 1 1 3 4 2 2 3 4 4 3 1 3 2 3 3 3 2 5 2 1 1 5 4 6 8 9 9 9 8 8 8 8 7 6 8 9 9 10 11
21 20 20 18 19 12 6 6 2 1 2 1 1 2 1 2 3 2 1 1 2 2 5 5 3 1 0 2 1 2 3 3 3 3 2 3 6 7 6 6 8 7 6 7 8 8 7 6 6 8 9 9 9 11
19 20 13 11 19 10 2 2 3 1 1 1 0 2 3 2 2 3 5 3 0 2 6 4 3 2 2 3 1 2 3 3 3 1 1 4 7 7 7 6 6 5 5 6 7 7 6 6 6 8 9 9 9 10
21 15 5 18 20 6 0 0 1 1 1 1 1 3 2 2 2 2 4 4 2 4 3 2 2 2 3 1 2 3 2 2 2 1 1 4 5 7 7 6 5 5 4 7 7 8 7 6 7 7 8 9 9 10
16 0 13 17 18 8 4 1 0 1 1 2 1 1 3 4 3 2 3 3 1 4 2 2 2 2 2 2 2 2 1 2 2 1 3 6 9 7 7 6 5 5 6 7 7 7 7 6 6 8 10 9 9 9
3 6 17 15 12 2 2 2 2 2 2 2 2 3 3 4 4 2 2 1 1 2 3 2 3 3 3 2 2 2 3 3 2 2 4 6 6 7 6 6 4 6 7 7 7 7 6 6 7 6 7 7 7 9
9 11 17 14 6 2 1 0 0 1 2 3 4 3 3 4 3 4 1 2 2 2 4 1 2 2 2 2 2 1 1 1 1 3 5 5 6 7 6 5 6 6 8 6 7 5 5 6 6 4 4 5 6 7
17 11 7 5 1 1 1 1 1 2 2 2 3 3 3 3 3 2 2 1 2 1 0 1 1 1 2 1 2 1 2 1 4 6 6 4 4 6 5 5 5 7 6 6 6 5 5 5 4 4 4 5 6 7
6 3 5 2 0 1 1 1 2 2 3 3 2 3 3 2 0 1 2 1 1 1 2 2 2 1 3 2 1 1 3 3 3 3 6 5 4 4 4 3 7 5 5 5 4 4 3 3 4 4 4 4 4 4
2 7 1 1 1 1 2 2 2 2 2 3 3 2 3 2 0 1 2 2 2 1 2 1 1 1 3 4 4 1 2 5 4 5 6 8 5 4 4 5 6 6 5 4 4 4 3 4 4 4 4 4 3 4
5 2 2 1 1 1 1 1 2 2 2 2 3 2 1 1 1 2 3 2 0 1 1 1 3 4 4 0 4 3 4 7 4 4 5 3 4 4 4 4 3 4 4 3 3 3 3 3 5 4 5 4 3 2
3 1 1 1 1 2 1 2 2 2 2 2 2 2 1 1 1 1 2 1 1 1 1 2 3 2 3 3 3 6 6 3 3 4 4 6 6 5 5 5 4 3 2 3 3 3 3 3 5 5 5 5 4 2
2 2 2 3 2 2 3 2 2 1 3 3 2 3 1 2 2 2 2 2 1 2 3 4 2 4 3 2 4 4 5 1 5 7 5 6 8 6 6 6 5 4 2 3 3 3 4 3 3 3 4 4 4 3
3 4 4 3 2 3 3 2 3 4 3 3 4 2 1 2 2 3 1 2 2 2 3 4 4 1 3 3 5 5 5 5 7 7 5 6 4 7 7 6 5 4 4 3 3 5 5 4 4 4 5 5 3 1
3 3 3 3 2 2 3 3 3 2 2 1 1 2 2 3 3 1 1 2 2 2 4 5 4 3 3 5 4 4 5 6 7 7 7 7 6 5 5 6 6 3 3 4 4 4 5 5 6 6 6 6 6 6
3 3 4 2 3 3 3 3 2 0 1 1 2 1 2 2 2 2 2 2 5 5 4 2 2 2 3 5 7 8 9 10 12 12 11 10 8 7 8 7 7 7 6 6 5 6 6 6 6 7 7 7 6 6
3 2 2 4 4 4 3 1 1 1 1 2 2 2 1 0 1 2 3 5 5 3 1 3 5 5 7 8 7 7 7 8 14 14 13 8 6 5 4 6 6 6 6 8 13 9 10 8 7 7 7 6 5 5
3 3 3 3 2 2 1 0 0 0 1 1 1 1 1 1 1 2 4 3 2 2 3 4 5 6 8 9 8 7 6 4 4 7 7 7 6 7 6 6 6 6 6 7 8 8 5 6 6 6 6 5 5 5
1 3 3 2 1 1 1 2 1 1 1 1 1 1 0 0 1 1 3 4 1 1 5 6 6 5 5 5 5 7 6 6 7 9 10 10 9 8 7 6 6 5 6 6 6 5 6 6 6 7 8 8 9 7
4 4 3 3 2 2 3 2 1 1 1 1 0 1 1 1 0 2 4 4 2 4 4 4 4 5 5 5 5 6 8 8 9 9 13 10 9 9 8 7 6 6 7 8 7 7 8 8 7 7 7 9 9 9
2 2 1 2 2 2 2 2 3 2 2 1 1 1 0 1 0 1 2 4 2 3 4 5 6 6 8 8 9 8 9 10 13 13 13 12 11 9 7 6 7 8 9 9 9 8 9 10 9 9 9 8 8 9
Wind_Direction
339 336 329 330 336 333 333 337 339 329 332 335 330 330 346 333 344 344 295 344 330 299 293 338 355 51 90 29 130 137 145 86 97 119 188 161 186 140 164 133 165 163 164 186 197 222 246 154 162 237 24 324 293 309
338 334 328 327 329 329 332 335 332 328 331 331 336 329 337 328 334 342 274 154 303 244 309 307 291 302 330 15 117 43 59 119 121 112 187 144 149 173 161 174 155 187 216 182 204 226 101 181 9 309 325 308 299 293
336 334 333 333 333 328 334 334 331 330 330 328 327 329 328 325 340 336 267 328 292 295 252 271 41 24 59 12 286 121 165 124 119 10 132 104 135 210 170 178 163 166 171 223 210 125 242 256 288 269 298 304 294 295
333 333 332 332 333 331 333 330 330 330 325 326 325 332 333 351 350 341 219 112 43 311 296 80 351 38 349 53 61 54 114 91 99 85 81 101 117 269 129 68 246 31 176 184 253 287 298 305 307 324 311 309 305 348
329 328 329 332 333 333 327 325 328 332 322 322 335 335 344 345 343 337 307 58 95 306 358 58 290 30 53 83 78 86 97 98 78 91 69 93 102 162 94 220 226 191 179 202 207 53 294 304 329 323 318 16 25 356
327 326 323 328 325 333 332 324 328 335 332 336 327 335 341 340 342 323 253 140 159 246 295 121 360 62 66 79 73 63 58 69 72 84 84 94 73 251 174 221 97 194 189 214 9 315 279 294 330 17 52 27 4 342
322 324 326 324 325 330 330 331 334 332 335 316 311 320 324 334 345 305 334 10 54 231 253 129 114 114 109 73 62 71 49 60 55 99 88 107 117 217 201 242 89 152 202 241 259 247 118 36 32 46 27 8 349 340
329 327 323 320 323 328 330 332 334 326 329 333 322 312 314 324 288 263 273 332 119 97 3 114 92 150 192 101 88 11 82 83 39 90 136 125 131 201 249 247 259 268 273 278 173 166 7 80 69 33 18 4 349 343
325 325 321 318 320 323 327 326 327 319 325 331 316 306 311 225 252 115 139 20 51 344 62 278 169 148 158 72 69 120 87 87 51 98 113 181 135 223 240 261 273 150 12 119 104 63 78 66 41 28 12 2 348 341
325 328 329 323 320 326 325 322 325 324 331 327 330 312 160 356 121 100 5 31 25 11 21 215 49 139 182 132 137 130 53 116 141 87 129 224 268 275 265 259 258 237 283 173 159 137 92 51 36 27 15 356 348 344
324 326 326 326 326 329 322 317 326 332 339 352 333 17 309 319 45 37 65 360 23 212 179 200 222 134 239 132 120 44 147 147 179 122 227 194 228 248 326 72 91 125 106 90 93 94 82 67 51 26 7 1 357 354
323 322 322 325 325 326 325 323 329 339 284 280 314 303 352 358 63 218 144 142 226 251 169 182 152 111 138 204 127 182 117 192 131 140 211 218 115 63 99 103 106 111 105 95 102 100 87 86 66 36 18 7 5 359
322 319 326 325 324 322 323 323 314 263 303 337 35 2 322 61 190 226 186 191 227 188 168 161 135 163 195 184 98 167 172 122 132 187 239 27 117 111 118 125 117 105 103 114 115 102 105 95 70 38 23 17 10 6
324 328 331 327 328 312 329 330 165 168 84 37 357 324 232 179 246 236 310 8 90 215 157 140 102 224 334 104 100 137 77 158 199 202 212 142 136 147 133 133 135 132 116 104 116 123 108 87 69 45 30 20 11 12
328 331 336 340 350 0 75 64 63 65 167 35 294 280 229 301 267 281 294 286 97 75 144 132 159 196 60 104 68 102 161 204 216 220 164 162 155 148 146 144 131 123 135 124 132 123 100 88 69 50 31 24 23 17
328 328 5 350 347 341 322 170 23 16 268 194 226 276 294 270 279 254 236 232 213 167 152 60 73 77 68 53 160 196 194 223 140 187 146 151 152 146 141 135 123 131 143 135 131 125 105 95 72 56 41 31 28 22
327 19 343 340 345 352 15 17 250 216 302 271 266 299 266 271 266 289 318 50 86 187 112 113 113 68 120 156 194 205 227 112 138 81 148 163 155 143 138 139 137 147 137 134 134 129 110 104 84 57 39 29 29 29
262 312 317 327 335 295 332 3 353 347 298 279 286 270 269 258 286 294 275 172 197 109 157 144 133 175 173 208 183 191 201 136 136 82 128 156 141 138 146 143 144 146 137 132 139 132 121 108 83 64 44 33 34 28
296 302 304 309 301 294 291 61 353 307 276 287 282 279 286 290 278 292 258 92 60 95 120 122 131 186 201 219 240 200 213 214 329 130 162 149 149 147 146 140 138 138 138 130 141 135 110 95 97 83 58 44 42 29
304 303 305 299 290 292 331 342 11 269 292 343 282 289 307 307 336 12 117 81 78 50 175 207 234 200 218 205 200 136 125 127 145 140 131 139 141 138 156 158 151 142 130 120 112 129 132 120 121 104 75 56 49 35
320 326 334 302 241 288 297 296 258 252 304 279 298 321 302 312 235 187 147 153 134 211 240 221 239 237 198 266 201 133 164 165 163 151 147 142 151 154 155 144 149 152 148 147 140 135 175 144 144 144 116 88 74 59
276 323 302 303 281 203 261 224 264 315 285 296 305 283 276 283 303 157 131 207 225 199 202 235 296 297 205 227 201 129 188 146 122 111 95 122 147 157 160 154 157 155 157 162 161 150 148 155 151 149 140 125 106 65
301 236 253 238 250 137 264 206 261 205 261 290 305 262 225 225 115 187 239 205 258 75 167 254 273 254 261 41 157 125 157 166 148 131 135 122 111 112 116 143 156 154 156 154 163 156 145 140 158 160 152 160 146 103
242 278 275 253 233 270 306 239 224 249 276 269 288 276 278 337 165 253 275 164 84 344 318 303 275 240 207 201 191 166 158 123 144 136 131 131 117 95 92 90 83 80 67 118 149 152 147 139 149 174 176 184 180 153
259 196 239 233 212 238 236 212 217 212 255 220 246 246 262 195 241 231 236 113 39 6 341 319 260 228 241 187 156 124 53 147 184 150 137 133 120 114 95 83 73 55 51 115 103 141 150 145 150 159 186 195 191 177
238 198 204 222 185 210 233 232 218 221 220 219 217 268 142 219 227 236 70 28 337 332 350 321 322 276 167 169 154 153 158 166 144 130 128 146 146 132 128 119 104 70 30 53 97 103 102 99 92 83 81 98 67 200
253 227 204 219 256 243 244 250 250 217 240 261 334 285 218 215 220 127 61 59 320 320 296 284 279 285 161 117 80 66 98 108 105 105 106 95 81 72 95 109 103 83 57 65 77 87 100 98 87 78 77 64 45 40
255 234 229 166 214 226 266 268 260 52 42 353 267 271 299 323 5 347 305 336 320 310 300 18 35 48 89 120 118 114 105 109 104 105 94 75 66 70 76 78 74 61 66 49 69 80 87 91 91 85 79 71 62 44
241 228 225 250 213 210 201 283 25 101 334 317 321 307 355 356 304 285 290 305 304 283 179 117 92 103 95 90 93 111 136 137 131 126 117 122 120 81 76 89 85 80 84 82 54 60 76 80 83 84 79 74 68 61
240 188 227 244 251 192 122 75 62 107 89 66 114 167 217 221 268 305 316 312 352 32 96 102 116 116 116 118 113 82 43 55 108 129 144 145 130 127 113 103 98 94 92 97 102 103 112 103 104 84 75 68 58 56
179 184 215 242 226 129 144 131 147 109 72 65 352 277 357 3 269 333 337 324 314 224 124 105 75 76 105 121 122 114 94 46 80 101 107 114 118 110 106 101 96 97 98 100 99 100 99 86 79 75 69 63 56 42
185 198 192 193 223 152 173 228 172 199 159 219 202 223 214 221 277 350 0 341 74 95 63 83 75 80 58 62 61 67 83 107 107 110 109 111 111 111 106 100 96 97 99 98 97 95 92 89 86 80 72 62 53 43
141 160 148 154 159 198 194 216 205 161 215 203 193 180 81 305 161 49 39 22 11 112 108 94 89 81 78 82 92 90 83 87 85 84 84 87 92 100 103 99 101 103 103 100 96 93 88 88 84 80 75 67 56 45